Location: Izdebno
(52.6670°N, 16.2170°E)
Time: 07:30:33
(UTC+02:00)

Vanguard 1 - Pass Details

Date: 23 February 2024
Orbit: 653 x 3825 km, 34.2° (Epoch: 22 April)

Event Time Altitude Azimuth Distance (km) Brightness Sun altitude
Rises 19:44:53 0° 219° (SW) 5,652 14.3 -22.3°
Reaches altitude 10° 19:48:32 10° 210° (SSW) 5,046 13.8 -22.8°
Maximum altitude 20:02:07 35° 152° (SSE) 4,461 13.0 -24.8°
Enters shadow 20:08:07 31° 126° (SE) 5,023 13.1 -25.7°
